Weather History for Wilmington, NC

Change the Weather History Date:

Thursday, May 23, 2013

  Actual Average Record
Temperature  
Mean Temperature 76 °F 72 °F  
Max Temperature 82 °F 82 °F 96 °F (1953)
Min Temperature 70 °F 62 °F 45 °F (2002)
Degree Days  
Heating Degree Days 0 0  
Month to date heating degree days 27 25  
Since 1 July heating degree days 2440 2407  
Cooling Degree Days 11 8  
Month to date cooling degree days 131 125  
Year to date cooling degree days 193 213  
Growing Degree Days 26 (Base 50)    
Moisture  
Dew Point 69 °F    
Average Humidity 82    
Maximum Humidity 97    
Minimum Humidity 67    
Precipitation  
Precipitation 0.13 in 0.16 in 2.84 in (2003)
Month to date precipitation 1.21 3.15  
Year to date precipitation 16.62 17.56  
Sea Level Pressure  
Sea Level Pressure 29.93 in    
Wind  
Wind Speed 6 mph (South)    
Max Wind Speed 20 mph    
Max Gust Speed 24 mph    
Visibility 10 miles    
Events Rain    
T = Trace of Precipitation, MM = Missing Value Source: NWS Daily Summary

Daily Weather History Graph

Daily Weather History Graph

Search for Another Location

Airport:

Trip Planner

Search our weather history database for the weather conditions in past years. The results will help you decide how hot, cold, wet, or windy it might be!

Date:

Astronomy

May. 23, 2013 Rise Set
Actual Time 6:04 AM EDT 8:12 PM EDT
Civil Twilight 5:36 AM EDT 8:41 PM EDT
Nautical Twilight 5:01 AM EDT 9:15 PM EDT
Astronomical Twilight 4:24 AM EDT 9:53 PM EDT
Moon 6:46 PM EDT (5/23) 4:43 AM EDT (5/23)
Length of Visible Light 15h 05m
Length of Day
14h 08m
Waxing Gibbous, 97% of the Moon is Illuminated
May 23
Waxing Gibbous
May 25
Full
May 31
Last Quarter
Jun 8
New
Jun 16
First Quarter

Hourly Weather History & Observations

Time (EDT) Temp. Heat Index Dew Point Humidity Pressure Visibility Wind Dir Wind Speed Gust Speed Precip Events Conditions
12:53 AM 73.0 °F - 68.0 °F 84% 30.00 in 10.0 mi SSE 5.8 mph - N/A   Mostly Cloudy
1:53 AM 73.0 °F - 69.1 °F 87% 29.98 in 10.0 mi SSE 4.6 mph - N/A   Clear
2:45 AM 71.6 °F - 69.8 °F 94% 29.97 in 10.0 mi South 4.6 mph - N/A   Mostly Cloudy
2:53 AM 73.0 °F - 70.0 °F 90% 29.97 in 8.0 mi South 3.5 mph - N/A   Mostly Cloudy
3:21 AM 71.6 °F - 69.8 °F 94% 29.96 in 10.0 mi South 8.1 mph - 0.00 in   Mostly Cloudy
3:28 AM 71.6 °F - 69.8 °F 94% 29.96 in 10.0 mi South 8.1 mph - 0.00 in   Scattered Clouds
3:53 AM 72.0 °F - 69.1 °F 91% 29.97 in 7.0 mi South 11.5 mph - 0.00 in Rain Light Rain
4:53 AM 70.0 °F - 68.0 °F 93% 29.96 in 8.0 mi South 5.8 mph - 0.05 in Rain Light Rain
5:53 AM 70.0 °F - 68.0 °F 93% 29.97 in 10.0 mi SSW 6.9 mph - 0.07 in Rain Light Rain
6:27 AM 69.8 °F - 68.0 °F 94% 29.97 in 10.0 mi South 4.6 mph - 0.00 in   Overcast
6:53 AM 70.0 °F - 68.0 °F 93% 29.97 in 10.0 mi SW 3.5 mph - 0.01 in   Mostly Cloudy
7:00 AM 69.8 °F - 69.8 °F 100% 29.98 in 10.0 mi WSW 3.5 mph - N/A   Overcast
7:14 AM 71.6 °F - 69.8 °F 94% 29.98 in 10.0 mi SSW 3.5 mph - N/A   Mostly Cloudy
7:53 AM 71.1 °F - 69.1 °F 93% 29.98 in 10.0 mi SSW 4.6 mph - N/A   Mostly Cloudy
8:53 AM 73.9 °F - 70.0 °F 87% 29.98 in 10.0 mi SSW 5.8 mph - N/A   Mostly Cloudy
9:14 AM 75.2 °F - 69.8 °F 83% 29.97 in 10.0 mi SSW 5.8 mph - N/A   Overcast
9:21 AM 75.2 °F - 69.8 °F 83% 29.97 in 10.0 mi SW 6.9 mph - N/A   Overcast
9:28 AM 73.4 °F - 69.8 °F 88% 29.97 in 10.0 mi SW 5.8 mph - N/A   Mostly Cloudy
9:53 AM 73.9 °F - 69.1 °F 85% 29.96 in 10.0 mi SW 5.8 mph - N/A   Scattered Clouds
10:33 AM 75.2 °F - 69.8 °F 83% 29.95 in 10.0 mi Calm Calm - N/A   Mostly Cloudy
10:42 AM 75.2 °F - 68.0 °F 78% 29.95 in 10.0 mi Calm Calm - N/A   Mostly Cloudy
10:50 AM 78.8 °F - 68.0 °F 69% 29.95 in 10.0 mi Variable 3.5 mph - N/A   Scattered Clouds
10:53 AM 78.1 °F - 66.9 °F 68% 29.96 in 10.0 mi WSW 4.6 mph - N/A   Scattered Clouds
11:53 AM 79.0 °F - 66.0 °F 64% 29.94 in 10.0 mi Calm Calm - N/A   Partly Cloudy
12:53 PM 80.1 °F 82.9 °F 69.1 °F 69% 29.92 in 10.0 mi SSE 4.6 mph - N/A   Scattered Clouds
1:31 PM 80.6 °F 83.9 °F 69.8 °F 70% 29.91 in 10.0 mi SE 10.4 mph - N/A   Mostly Cloudy
1:39 PM 80.6 °F 83.2 °F 68.0 °F 65% 29.91 in 10.0 mi ESE 10.4 mph - N/A   Mostly Cloudy
1:53 PM 81.0 °F 83.8 °F 68.0 °F 65% 29.91 in 10.0 mi ESE 10.4 mph - N/A   Mostly Cloudy
2:53 PM 78.1 °F - 66.9 °F 68% 29.88 in 10.0 mi SSE 8.1 mph - 0.00 in Rain Light Rain
3:34 PM 73.4 °F - 68.0 °F 83% 29.89 in 10.0 mi SSW 5.8 mph - 0.00 in   Overcast
3:53 PM 75.9 °F - 69.1 °F 79% 29.88 in 10.0 mi Calm Calm - 0.00 in Rain Light Rain
4:00 PM 78.8 °F - 69.8 °F 74% 29.88 in 10.0 mi WSW 3.5 mph - 0.00 in   Mostly Cloudy
4:28 PM 80.6 °F 83.2 °F 68.0 °F 65% 29.85 in 10.0 mi South 11.5 mph - 0.00 in   Mostly Cloudy
4:53 PM 78.1 °F - 66.9 °F 68% 29.86 in 10.0 mi South 13.8 mph 19.6 mph 0.00 in   Partly Cloudy
5:53 PM 77.0 °F - 68.0 °F 74% 29.86 in 10.0 mi SSW 9.2 mph - 0.00 in   Scattered Clouds
6:53 PM 77.0 °F - 68.0 °F 74% 29.88 in 10.0 mi SW 12.7 mph - N/A   Mostly Cloudy
7:53 PM 75.0 °F - 68.0 °F 79% 29.87 in 10.0 mi SSW 6.9 mph - N/A   Mostly Cloudy
8:53 PM 73.9 °F - 68.0 °F 82% 29.88 in 10.0 mi SSW 5.8 mph - N/A   Clear
9:53 PM 72.0 °F - 69.1 °F 91% 29.87 in 10.0 mi South 4.6 mph - N/A   Clear
10:40 PM 73.4 °F - 69.8 °F 88% 29.87 in 10.0 mi SSW 3.5 mph - N/A   Mostly Cloudy
10:53 PM 73.0 °F - 70.0 °F 90% 29.86 in 10.0 mi SSE 4.6 mph - N/A   Mostly Cloudy
10:57 PM 73.4 °F - 69.8 °F 88% 29.86 in 10.0 mi SSE 4.6 mph - N/A   Scattered Clouds
11:53 PM 72.0 °F - 70.0 °F 93% 29.86 in 10.0 mi Calm Calm - N/A   Partly Cloudy